Weather in Megion

Russia / Khanty-Mansi Autonomous Okrug — Yugra     61°01′58″N   76°06′09″E
temp.,
°C
wind,
m/s
gust,
m/s
humid.,
%
clouds,
%
prec.,
mm/h
press.,
hPa
HPBL,
m
24 january, mon
mon2423:00−18ssw1110075 0.1 103410
02:00−19sw229979 0.1 103429
05:00−18sw119966 0.1 103412
08:00−18ssw119994 0.1 103311
11:00−14wsw1295100 0.3 103382
14:00−14s119772 0.1 10339
17:00−18s2210084 0.1 10339
20:00−18s22100100 0.1 103111
25 january, tue
tue2523:00−20sse2210088 0.1 103013
02:00−17sse339885 0.1 102939
05:00−18sse349885 0.1 102739
08:00−14se3496100 0.1 102578
11:00−12se349570 0.6 1025153
14:00−13ese339780 0.0 102333
17:00−13se349673 0.1 102451
20:00−17se339982 0.1 102418
26 january, wed
wed2623:00−20se2210098 0.1 102412
02:00−23sse32100100 0.0 102512
05:00−24se22100100 0.1 102610
08:00−24sse3310099 0.0 102619
11:00−20s2210074 0.0 102739
14:00−16sse22989 0.0 102730
17:00−18sse449824 0.0 102838
20:00−19s3410061 0.0 102842
27 january, thu
thu2723:00−17s469762 0.0 102873
02:00−18s359989 0.0 102849
05:00−18s459899 0.0 102956
08:00−18s469894 0.0 102960
11:00−15s4895100 0.0 1028152
14:00−13sse4793100 0.0 1028127
17:00−13sse5993100 0.0 1028149
20:00−13s5992100 0.0 1026142
28 january, fri
fri2823:00−12s51090100 0.0 1025243
02:00−11s51095100 0.7 1025382
05:00−12ssw489487 1.1 1025215
08:00−15s459779 0.1 102678
11:00−13ssw479672 0.1 1026156
14:00−12s3496100 0.0 102661
17:00−15s349859 0.0 102741
20:00−17s3310070 0.0 102734